FW1433 Weather Reports


time (UTC)temp
C
wind
direction
speed
KPH
gust
KPH
rain 1hr
cm
rain 24hr
cm
rain mn
cm
humidity
%
barometer
mb
20260504234617 17 52 6.4 16.1 0.00 0.00 0.00 34 1007.4
20260504234117 17 85 6.4 16.1 0.00 0.00 0.00 33 1007.4
20260504233848 18 137 6.4 17.7 0.00 0.00 0.00 33 1007.4
20260504233116 18 288 6.4 17.7 0.00 0.00 0.00 33 1007.2
20260504232615 18 348 4.8 14.5 0.00 0.00 0.00 32 1007.2
20260504232117 18 11 4.8 14.5 0.00 0.00 0.00 33 1007.2
20260504231615 18 274 3.2 12.9 0.00 0.00 0.00 33 1007.1
20260504231114 18 212 3.2 14.5 0.00 0.00 0.00 33 1007.2
20260504230846 18 48 6.4 19.3 0.00 0.00 0.00 32 1007.2
20260504230114 18 123 8.0 19.3 0.00 0.00 0.00 33 1007.2
20260504225614 18 321 8.0 19.3 0.00 0.00 0.00 32 1007.2
20260504225120 18 182 8.0 30.6 0.00 0.00 0.00 33 1007.1
20260504225115 18 355 6.4 22.5 0.00 0.00 0.00 32 1007.1
20260504224116 18 323 8.0 30.6 0.00 0.00 0.00 32 1007.4
20260504223614 18 313 8.0 27.4 0.00 0.00 0.00 32 1007.2
20260504223113 18 152 8.0 27.4 0.00 0.00 0.00 31 1007.1
20260504222620 18 31 6.4 14.5 0.00 0.00 0.00 32 1007.0
20260504222615 18 28 6.4 16.1 0.00 0.00 0.00 31 1006.9
20260504221613 19 146 6.4 20.9 0.00 0.00 0.00 31 1007.0
20260504221115 19 90 8.0 25.7 0.00 0.00 0.00 31 1007.0
20260504220613 19 55 8.0 25.7 0.00 0.00 0.00 31 1007.1
20260504220345 19 98 8.0 22.5 0.00 0.00 0.00 30 1007.0
20260504215615 19 12 6.4 22.5 0.00 0.00 0.00 30 1007.1
20260504215113 20 213 8.0 24.1 0.00 0.00 0.00 30 1007.1
20260504214616 20 115 6.4 24.1 0.00 0.00 0.00 29 1007.1
20260504214115 20 12 4.8 14.5 0.00 0.00 0.00 29 1006.9
20260504213614 20 342 4.8 14.5 0.00 0.00 0.00 29 1006.9
20260504213114 20 17 4.8 14.5 0.00 0.00 0.00 29 1006.9
20260504212615 20 82 4.8 16.1 0.00 0.00 0.00 29 1006.9
20260504212113 20 302 6.4 17.7 0.00 0.00 0.00 29 1007.1
20260504211612 20 350 6.4 24.1 0.00 0.00 0.00 29 1007.0
20260504211113 20 44 6.4 24.1 0.00 0.00 0.00 29 1007.2
20260504210610 20 284 6.4 19.3 0.00 0.00 0.00 29 1007.2
20260504210339 20 301 8.0 29.0 0.00 0.00 0.00 29 1007.4
20260504205609 20 171 9.7 29.0 0.00 0.00 0.00 30 1007.4
20260504205107 20 86 6.4 17.7 0.00 0.00 0.00 28 1007.5
20260504204609 20 58 6.4 20.9 0.00 0.00 0.00 29 1007.4
20260504204108 20 19 8.0 20.9 0.00 0.00 0.00 29 1007.5
20260504203608 20 146 8.0 27.4 0.00 0.00 0.00 30 1007.5
20260504203340 20 273 9.7 27.4 0.00 0.00 0.00 30 1007.4
20260504202609 20 285 9.7 29.0 0.00 0.00 0.00 29 1007.4
20260504202107 20 46 9.7 29.0 0.00 0.00 0.00 30 1007.5
20260504201608 20 82 9.7 20.9 0.00 0.00 0.00 30 1007.5
20260504201107 20 180 6.4 17.7 0.00 0.00 0.00 29 1007.6
20260504200606 20 22 6.4 20.9 0.00 0.00 0.00 30 1007.4
20260504200108 20 281 6.4 20.9 0.00 0.00 0.00 29 1007.5
20260504195607 20 21 6.4 24.1 0.00 0.00 0.00 30 1007.6
20260504195107 20 302 6.4 24.1 0.00 0.00 0.00 30 1007.5
20260504194605 19 301 9.7 24.1 0.00 0.00 0.00 30 1007.5
20260504194106 20 263 9.7 24.1 0.00 0.00 0.00 29 1007.6
20260504193838 20 13 9.7 20.9 0.00 0.00 0.00 30 1007.5
20260504193104 19 65 9.7 20.9 0.00 0.00 0.00 30 1007.5
20260504192831 20 171 9.7 30.6 0.00 0.00 0.00 29 1007.5
20260504192108 19 69 8.0 25.7 0.00 0.00 0.00 32 1007.8
20260504192102 19 77 9.7 30.6 0.00 0.00 0.00 30 1007.6
20260504191102 19 42 8.0 27.4 0.00 0.00 0.00 31 1007.8
20260504190603 19 213 6.4 27.4 0.00 0.00 0.00 31 1007.8
20260504190332 18 251 8.0 27.4 0.00 0.00 0.00 31 1007.8
20260504185600 18 313 11.3 29.0 0.00 0.00 0.00 31 1007.9
20260504185332 19 258 9.7 29.0 0.00 0.00 0.00 30 1007.8
20260504184556 19 139 9.7 24.1 0.00 0.00 0.00 31 1007.9
20260504184057 18 10 8.0 24.1 0.00 0.00 0.00 32 1007.7
20260504183832 18 325 4.8 32.2 0.00 0.00 0.00 33 1007.8
20260504183054 18 151 6.4 32.2 0.00 0.00 0.00 32 1007.8
20260504182555 18 345 9.7 32.2 0.00 0.00 0.00 33 1007.8
20260504182056 18 292 8.0 32.2 0.00 0.00 0.00 33 1007.9
20260504181555 18 157 8.0 24.1 0.00 0.00 0.00 32 1007.9
20260504181055 18 37 9.7 24.1 0.00 0.00 0.00 32 1007.9
20260504180556 18 329 6.4 19.3 0.00 0.00 0.00 32 1007.8
20260504180054 18 119 8.0 17.7 0.00 0.00 0.00 32 1007.8
20260504175556 18 267 9.7 27.4 0.00 0.00 0.00 34 1007.7
20260504175055 18 86 11.3 27.4 0.00 0.00 0.00 34 1007.6
20260504174555 18 77 8.0 19.3 0.00 0.00 0.00 34 1007.8
20260504174055 18 245 6.4 19.3 0.00 0.00 0.00 35 1007.5
20260504173828 18 32 8.0 17.7 0.00 0.00 0.00 36 1007.6
20260504173055 18 219 11.3 25.7 0.00 0.00 0.00 35 1007.5
20260504172556 18 141 9.7 25.7 0.00 0.00 0.00 35 1007.5
20260504172055 18 24 8.0 24.1 0.00 0.00 0.00 35 1007.5
20260504171555 18 223 9.7 25.7 0.00 0.00 0.00 34 1007.4
20260504171056 18 96 9.7 25.7 0.00 0.00 0.00 34 1007.2
20260504170556 18 217 8.0 25.7 0.00 0.00 0.00 34 1007.2
20260504150550 15 303 3.2 12.9 0.00 0.00 0.00 36 1006.0
20260504141051 12 288 1.6 4.8 0.00 0.00 0.00 48 1006.2
20260504140549 12 288 3.2 6.4 0.00 0.00 0.00 49 1006.2
20260504130542 7 26 0.0 3.2 0.00 0.00 0.00 63 1006.0
20260504110530 3 123 0.0 3.2 0.00 0.00 0.00 67 1005.9
20260504100518 3 123 3.2 6.4 0.00 0.00 0.00 65 1006.1
20260504081741 7 167 0.0 4.8 0.00 0.00 0.00 55 1006.9
20260504081011 8 21 1.6 4.8 0.00 0.00 0.00 54 1006.9
20260504080510 8 21 3.2 8.0 0.00 0.00 0.00 53 1007.0
20260504060225 11 113 3.2 6.4 0.00 0.00 0.00 51 1007.8
20260504050452 9 93 3.2 6.4 0.00 0.00 0.00 57 1008.3
20260504045952 8 135 3.2 9.7 0.00 0.00 0.00 56 1008.3
20260504045450 9 98 4.8 9.7 0.00 0.00 0.00 54 1008.4
20260504044951 9 111 4.8 11.3 0.00 0.00 0.00 54 1008.3
20260504044450 9 131 4.8 11.3 0.00 0.00 0.00 55 1008.4
20260504044220 9 122 3.2 8.0 0.00 0.00 0.00 54 1008.5
20260504043449 9 125 4.8 6.4 0.00 0.00 0.00 53 1008.5
20260504042948 9 132 4.8 6.4 0.00 0.00 0.00 53 1008.5
20260504042449 9 119 3.2 6.4 0.00 0.00 0.00 50 1008.5
20260504041947 10 119 3.2 6.4 0.00 0.00 0.00 52 1008.6
20260504041445 10 96 3.2 6.4 0.00 0.00 0.00 50 1008.6
20260504040944 10 107 3.2 6.4 0.00 0.00 0.00 50 1008.7
20260504040444 10 123 3.2 6.4 0.00 0.00 0.00 49 1008.7
20260504035943 10 113 1.6 4.8 0.00 0.00 0.00 48 1008.8
20260504035443 10 81 1.6 3.2 0.00 0.00 0.00 47 1008.8
20260504034943 11 91 1.6 4.8 0.00 0.00 0.00 47 1008.8
20260504034442 11 89 3.2 4.8 0.00 0.00 0.00 45 1008.8
20260504033943 11 135 3.2 11.3 0.00 0.00 0.00 45 1008.9
20260504033441 11 142 4.8 11.3 0.00 0.00 0.00 47 1008.9
20260504032944 11 121 3.2 9.7 0.00 0.00 0.00 44 1008.8
20260504032443 11 120 3.2 6.4 0.00 0.00 0.00 44 1008.8
20260504031942 11 120 3.2 4.8 0.00 0.00 0.00 44 1008.8
20260504031442 11 120 3.2 6.4 0.00 0.00 0.00 43 1008.9
20260504030942 12 120 4.8 8.0 0.00 0.00 0.00 42 1008.9
20260504030442 12 129 3.2 8.0 0.00 0.00 0.00 41 1008.9
20260504025943 12 130 1.6 6.4 0.00 0.00 0.00 40 1008.8
20260504025441 13 130 1.6 3.2 0.00 0.00 0.00 39 1008.8
20260504024942 13 130 0.0 3.2 0.00 0.00 0.00 39 1008.7
20260504024443 13 130 0.0 1.6 0.00 0.00 0.00 38 1008.7
20260504024211 14 130 1.6 3.2 0.00 0.00 0.00 37 1008.5
20260504023439 15 130 1.6 6.4 0.00 0.00 0.00 37 1008.5
20260504022938 15 130 1.6 6.4 0.00 0.00 0.00 36 1008.5
20260504022435 15 130 1.6 8.0 0.00 0.00 0.00 36 1008.6
20260504021936 16 130 1.6 8.0 0.00 0.00 0.00 35 1008.5
20260504021435 16 163 1.6 8.0 0.00 0.00 0.00 35 1008.5
20260504020936 16 159 1.6 6.4 0.00 0.00 0.00 34 1008.6
20260504020437 16 180 0.0 6.4 0.00 0.00 0.00 34 1008.6
20260504015936 17 181 1.6 9.7 0.00 0.00 0.00 33 1008.6
20260504015432 17 23 1.6 9.7 0.00 0.00 0.00 33 1008.6
20260504015203 17 59 1.6 8.0 0.00 0.00 0.00 33 1008.5
20260504014432 17 90 3.2 6.4 0.00 0.00 0.00 32 1008.5
20260504013931 17 258 3.2 11.3 0.00 0.00 0.00 32 1008.5
20260504013705 17 309 4.8 14.5 0.00 0.00 0.00 32 1008.5
20260504012932 18 254 4.8 14.5 0.00 0.00 0.00 31 1008.6
20260504012703 18 278 4.8 17.7 0.00 0.00 0.00 31 1008.6
20260504012203 18 297 6.4 17.7 0.00 0.00 0.00 31 1008.6
20260504011433 18 298 6.4 14.5 0.00 0.00 0.00 31 1008.7
20260504010933 18 264 6.4 14.5 0.00 0.00 0.00 31 1008.8
20260504010433 19 0 6.4 16.1 0.00 0.00 0.00 31 1008.9
20260504010202 19 304 6.4 16.1 0.00 0.00 0.00 31 1008.9
20260504010048 19 265 6.4 17.7 0.00 0.00 0.00 31 1009.1
20260504004930 19 274 6.4 17.7 0.00 0.00 0.00 31 1009.1
20260504004432 19 305 6.4 17.7 0.00 0.00 0.00 31 1008.8
20260504004159 19 257 8.0 61.2 0.00 0.00 0.00 30 1008.8
20260504003429 19 307 14.5 61.2 0.00 0.00 0.00 30 1008.9
20260504002929 20 227 24.1 61.2 0.00 0.00 0.00 29 1009.1
20260504002428 21 259 19.3 61.2 0.00 0.00 0.00 26 1008.8
20260504002200 21 288 6.4 19.3 0.00 0.00 0.00 20 1008.4
20260504001700 22 281 4.8 11.3 0.00 0.00 0.00 20 1007.9
20260504000927 22 283 3.2 12.9 0.00 0.00 0.00 20 1007.7
20260504000431 22 300 3.2 12.9 0.00 0.00 0.00 19 1007.9
20260503235928 22 318 1.6 12.9 0.00 0.00 0.00 19 1007.9
20260503235658 23 276 3.2 14.5 0.00 0.00 0.00 19 1008.0